TimeCST,TemperatureF,Dew PointF,Humidity,Sea Level PressureIn,VisibilityMPH,Wind Direction,Wind SpeedMPH,Gust SpeedMPH,PrecipitationIn,Events,Conditions,WindDirDegrees,DateUTC
12:53 AM,27.0,23.0,85,30.39,9.0,Calm,Calm,-,N/A,,Clear,0,2012-11-28 06:53:00
1:53 AM,27.0,23.0,85,30.41,10.0,Calm,Calm,-,N/A,,Clear,0,2012-11-28 07:53:00
2:53 AM,26.1,21.9,84,30.41,9.0,Calm,Calm,-,N/A,,Clear,0,2012-11-28 08:53:00
3:53 AM,26.1,21.9,84,30.41,8.0,Calm,Calm,-,N/A,,Clear,0,2012-11-28 09:53:00
4:53 AM,26.1,21.9,84,30.43,9.0,Calm,Calm,-,N/A,,Clear,0,2012-11-28 10:53:00
5:53 AM,25.0,21.0,85,30.44,9.0,Calm,Calm,-,N/A,,Clear,0,2012-11-28 11:53:00
6:53 AM,25.0,21.0,85,30.46,8.0,Calm,Calm,-,N/A,,Clear,0,2012-11-28 12:53:00
7:53 AM,28.0,24.1,85,30.48,7.0,Calm,Calm,-,N/A,,Clear,0,2012-11-28 13:53:00
8:53 AM,34.0,28.9,82,30.48,9.0,Calm,Calm,-,N/A,,Clear,0,2012-11-28 14:53:00
9:53 AM,41.0,28.9,62,30.49,10.0,NW,3.5,-,N/A,,Clear,320,2012-11-28 15:53:00
10:53 AM,46.0,28.0,50,30.49,10.0,Calm,Calm,-,N/A,,Clear,0,2012-11-28 16:53:00
11:53 AM,48.9,26.1,41,30.46,10.0,ENE,3.5,-,N/A,,Clear,60,2012-11-28 17:53:00
12:53 PM,50.0,25.0,38,30.43,10.0,Calm,Calm,-,N/A,,Clear,0,2012-11-28 18:53:00
1:53 PM,50.0,26.1,39,30.41,10.0,South,3.5,-,N/A,,Clear,170,2012-11-28 19:53:00
2:53 PM,50.0,27.0,41,30.40,10.0,Calm,Calm,-,N/A,,Clear,0,2012-11-28 20:53:00
3:53 PM,50.0,27.0,41,30.40,10.0,Calm,Calm,-,N/A,,Clear,0,2012-11-28 21:53:00
4:53 PM,46.0,28.0,50,30.39,10.0,Calm,Calm,-,N/A,,Clear,0,2012-11-28 22:53:00
5:53 PM,41.0,28.9,62,30.40,10.0,Calm,Calm,-,N/A,,Clear,0,2012-11-28 23:53:00
6:53 PM,39.0,30.0,70,30.40,10.0,Calm,Calm,-,N/A,,Clear,0,2012-11-29 00:53:00
7:53 PM,34.0,28.9,82,30.40,9.0,Calm,Calm,-,N/A,,Clear,0,2012-11-29 01:53:00
8:53 PM,32.0,28.9,88,30.39,9.0,Calm,Calm,-,N/A,,Clear,0,2012-11-29 02:53:00
9:53 PM,30.9,28.0,89,30.38,10.0,Calm,Calm,-,N/A,,Clear,0,2012-11-29 03:53:00
10:53 PM,30.9,27.0,85,30.37,10.0,Calm,Calm,-,N/A,,Clear,0,2012-11-29 04:53:00
11:53 PM,28.9,26.1,89,30.36,10.0,Calm,Calm,-,N/A,,Clear,0,2012-11-29 05:53:00